User: anonymous   Login
Location: Albany
(35.0000°S, 118.0000°E)
Time: 17:56:09
(UTC-04:00)
Language:

ADEOS Rocket - Orbit

View from above orbital plane
View from above orbital plane
View from above satellite
View from above satellite

Ground track
Ground track

The orbit data is extracted from the following two-line orbital elements,

1 24279U 96046C   17265.89878220 +.00000011 +00000-0 +57354-4 0  9994
2 24279 098.7581 197.8020 0300892 039.8609 001.8627 13.47094141037129
Epoch (UTC): 22 September 2017 21:34:14
Eccentricity: 0.0300892
inclination: 98.7581°
perigee height: 858 km
apogee height: 1307 km
right ascension of ascending node: 197.8020°
argument of perigee: 39.8609°
revolutions per day: 13.47094141
mean anomaly at epoch: 1.8627°
orbit number at epoch: 3712

The dashed part of the orbit path shows where the satellite is in the earth's shadow,  

DLR